H1 CPF 2 NER 2025 8 16 9 228 01 glonass141 H2 1908801 9141 44850 2025 8 16 0 0 0 2025 8 19 23 45 0 900 1 1 0 0 0 1 H9 10 0 60903 0.00000 0 -11207824.813 22731947.980 -2943158.405 10 0 60903 900.00000 0 -11115407.624 22968259.188 282283.768 10 0 60903 1800.00000 0 -10848166.582 22833475.995 3502254.100 10 0 60903 2700.00000 0 -10460127.784 22310358.023 6654292.487 10 0 60903 3600.00000 0 -10008536.826 21394839.034 9677296.251 10 0 60903 4500.00000 0 -9551238.962 20096329.513 12512699.163 10 0 60903 5400.00000 0 -9144048.137 18437471.899 15105598.409 10 0 60903 6300.00000 0 -8838215.708 16453358.976 17405808.285 10 0 60903 7200.00000 0 -8678105.085 14190248.142 19368821.094 10 0 60903 8100.00000 0 -8699169.555 11703824.892 20956657.735 10 0 60903 9000.00000 0 -8926317.732 9057087.182 22138592.732 10 0 60903 9900.00000 0 -9372734.774 6317937.655 22891740.761 10 0 60903 10800.00000 0 -10039208.658 3556582.422 23201494.380 10 0 60903 11700.00000 0 -10913989.897 842842.725 23061805.184 10 0 60903 12600.00000 0 -11973191.190 -1756510.653 22475303.290 10 0 60903 13500.00000 0 -13181711.283 -4180291.383 21453252.770 10 0 60903 14400.00000 0 -14494645.725 -6375196.451 20015343.366 10 0 60903 15300.00000 0 -15859127.025 -8297775.690 18189321.611 10 0 60903 16200.00000 0 -17216518.750 -9915991.130 16010467.280 10 0 60903 17100.00000 0 -18504873.124 -11210301.878 13520923.911 10 0 60903 18000.00000 0 -19661550.217 -12174229.569 10768894.918 10 0 60903 18900.00000 0 -20625889.477 -12814380.769 7807719.597 10 0 60903 19800.00000 0 -21341821.560 -13149925.287 4694845.853 10 0 60903 20700.00000 0 -21760310.166 -13211552.067 1490718.899 10 0 60903 21600.00000 0 -21841520.183 -13039946.478 -1742392.743 10 0 60903 22500.00000 0 -21556619.401 -12683853.222 -4941611.029 10 0 60903 23400.00000 0 -20889136.220 -12197806.896 -8044677.752 10 0 60903 24300.00000 0 -19835814.262 -11639626.702 -10991174.744 10 0 60903 25200.00000 0 -18406926.098 -11067782.092 -13723710.124 10 0 60903 26100.00000 0 -16626031.191 -10538741.882 -16189046.344 10 0 60903 27000.00000 0 -14529186.891 -10104420.182 -18339147.001 10 0 60903 27900.00000 0 -12163644.531 -9809828.453 -20132121.133 10 0 60903 28800.00000 0 -9586084.691 -9691034.145 -21533045.858 10 0 60903 29700.00000 0 -6860465.170 -9773513.187 -22514650.924 10 0 60903 30600.00000 0 -4055571.543 -10070966.744 -23057851.637 10 0 60903 31500.00000 0 -1242372.746 -10584652.693 -23152119.824 10 0 60903 32400.00000 0 1508707.942 -11303260.311 -22795685.825 10 0 60903 33300.00000 0 4130492.698 -12203333.482 -21995567.921 10 0 60903 34200.00000 0 6561607.369 -13250224.427 -20767429.043 10 0 60903 35100.00000 0 8748791.945 -14399537.407 -19135264.011 10 0 60903 36000.00000 0 10648867.736 -15599001.166 -17130923.854 10 0 60903 36900.00000 0 12230280.305 -16790690.697 -14793486.976 10 0 60903 37800.00000 0 13474155.190 -17913504.235 -12168489.913 10 0 60903 38700.00000 0 14374824.099 -18905790.647 -9307033.143 10 0 60903 39600.00000 0 14939801.519 -19708016.123 -6264779.937 10 0 60903 40500.00000 0 15189214.909 -20265357.541 -3100868.271 10 0 60903 41400.00000 0 15154714.555 -20530113.143 123242.540 10 0 60903 42300.00000 0 14877910.951 -20463829.048 3344967.532 10 0 60903 43200.00000 0 14408407.271 -20039052.227 6501810.555 10 0 60903 44100.00000 0 13801511.210 -19240636.573 9532573.750 10 0 60903 45000.00000 0 13115723.600 -18066547.453 12378538.610 10 0 60903 45900.00000 0 12410110.118 -16528131.345 14984596.071 10 0 60903 46800.00000 0 11741666.869 -14649839.379 17300304.349 10 0 60903 47700.00000 0 11162790.371 -12468416.343 19280854.906 10 0 60903 48600.00000 0 10718957.761 -10031588.635 20887928.900 10 0 60903 49500.00000 0 10446713.906 -7396305.164 22090428.756 10 0 60903 50400.00000 0 10372049.156 -4626603.370 22865071.814 10 0 60903 51300.00000 0 10509235.172 -1791187.642 23196835.576 10 0 60903 52200.00000 0 10860167.287 1039180.981 23079246.721 10 0 60903 53100.00000 0 11414241.006 3794377.319 22514508.593 10 0 60903 54000.00000 0 12148768.282 6407576.923 21513464.703 10 0 60903 54900.00000 0 13029917.006 8817784.508 20095398.412 10 0 60903 55800.00000 0 14014135.506 10972122.414 18287671.806 10 0 60903 56700.00000 0 15050003.708 12827785.207 16125209.541 10 0 60903 57600.00000 0 16080434.640 14353579.818 13649836.240 10 0 60903 58500.00000 0 17045135.022 15530987.429 10909478.884 10 0 60903 59400.00000 0 17883222.352 16354702.807 7957248.306 10 0 60903 60300.00000 0 18535888.764 16832628.343 4850416.529 10 0 60903 61200.00000 0 18948999.269 16985322.749 1649309.099 10 0 60903 62100.00000 0 19075514.168 16844927.303 -1583866.378 10 0 60903 63000.00000 0 18877632.249 16453614.654 -4786232.624 10 0 60903 63900.00000 0 18328562.727 15861625.693 -7895471.866 10 0 60903 64800.00000 0 17413849.314 15124977.654 -10851047.074 10 0 60903 65700.00000 0 16132188.610 14302940.867 -13595390.449 10 0 60903 66600.00000 0 14495706.421 13455391.703 -16075034.894 10 0 60903 67500.00000 0 12529678.670 12640154.574 -18241665.347 10 0 60903 68400.00000 0 10271707.190 11910446.461 -20053068.591 10 0 60903 69300.00000 0 7770383.947 11312532.945 -21473962.291 10 0 60903 70200.00000 0 5083498.951 10883695.671 -22476686.650 10 0 60903 71100.00000 0 2275866.417 10650597.674 -23041745.041 10 0 60903 72000.00000 0 -583140.127 10628115.935 -23158183.070 10 0 60903 72900.00000 0 -3422240.944 10818690.508 -22823798.916 10 0 60903 73800.00000 0 -6170980.815 11212217.438 -22045181.227 10 0 60903 74700.00000 0 -8762423.608 11786489.583 -20837574.211 10 0 60903 75600.00000 0 -11135698.730 12508166.127 -19224573.060 10 0 60903 76500.00000 0 -13238293.840 13334229.181 -17237656.084 10 0 60903 77400.00000 0 -15027999.042 14213865.274 -14915563.175 10 0 60903 78300.00000 0 -16474422.581 15090691.573 -12303533.172 10 0 60903 79200.00000 0 -17560016.188 15905232.232 -9452415.504 10 0 60903 80100.00000 0 -18280568.919 16597539.703 -6417673.898 10 0 60903 81000.00000 0 -18645150.721 17109849.947 -3258302.126 10 0 60903 81900.00000 0 -18675510.163 17389159.151 -35673.350 10 0 60903 82800.00000 0 -18404953.575 17389613.119 3187654.043 10 0 60903 83700.00000 0 -17876754.604 17074608.573 6349150.556 10 0 60903 84600.00000 0 -17142162.617 16418517.989 9387525.918 10 0 60903 85500.00000 0 -16258094.974 15407965.577 12243912.132 10 0 60904 0.00000 0 -15284611.095 14042601.114 14862996.421 10 0 60904 900.00000 0 -14282274.303 12335338.458 17194084.078 10 0 60904 1800.00000 0 -13309513.515 10312050.578 19192068.000 10 0 60904 2700.00000 0 -12420093.294 8010731.046 20818291.906 10 0 60904 3600.00000 0 -11660798.901 5480158.007 22041288.135 10 0 60904 4500.00000 0 -11069431.981 2778114.591 22837378.333 10 0 60904 5400.00000 0 -10673200.013 -30761.535 23191126.198 10 0 60904 6300.00000 0 -10487566.196 -2877411.829 23095634.270 10 0 60904 7200.00000 0 -10515607.491 -5690974.582 22552679.415 10 0 60904 8100.00000 0 -10747907.574 -8401479.989 21572684.351 10 0 60904 9000.00000 0 -11162989.517 -10942512.639 20174525.301 10 0 60904 9900.00000 0 -11728270.751 -13253732.470 18385178.610 10 0 60904 10800.00000 0 -12401501.225 -15283150.787 16239212.008 10 0 60904 11700.00000 0 -13132625.495 -16989067.546 13778128.943 10 0 60904 12600.00000 0 -13865991.578 -18341589.635 11049577.291 10 0 60904 13500.00000 0 -14542814.499 -19323666.890 8106436.426 10 0 60904 14400.00000 0 -15103791.290 -19931602.281 5005799.258 10 0 60904 15300.00000 0 -15491757.219 -20175014.471 1807868.271 10 0 60904 16200.00000 0 -15654270.694 -20076253.837 -1425213.321 10 0 60904 17100.00000 0 -15546016.674 -19669296.128 -4630572.515 10 0 60904 18000.00000 0 -15130925.634 -18998160.121 -7745835.455 10 0 60904 18900.00000 0 -14383916.779 -18114916.048 -10710349.635 10 0 60904 19800.00000 0 -13292189.940 -17077369.164 -13466374.579 10 0 60904 20700.00000 0 -11856009.582 -15946516.871 -15960216.654 10 0 60904 21600.00000 0 -10088946.018 -14783887.566 -18143284.824 10 0 60904 22500.00000 0 -8017561.897 -13648874.479 -19973045.884 10 0 60904 23400.00000 0 -5680555.793 -12596177.981 -21413859.800 10 0 60904 24300.00000 0 -3127397.769 -11673465.009 -22437678.414 10 0 60904 25200.00000 0 -416513.279 -10919344.912 -23024593.729 10 0 60904 26100.00000 0 2386908.996 -10361747.317 -23163225.082 10 0 60904 27000.00000 0 5213394.071 -10016770.305 -22850937.895 10 0 60904 27900.00000 0 7991839.106 -9888047.083 -22093890.066 10 0 60904 28800.00000 0 10652242.551 -9966657.162 -20906905.538 10 0 60904 29700.00000 0 13128390.401 -10231584.905 -19313177.958 10 0 60904 30600.00000 0 15360387.909 -10650705.086 -17343810.657 10 0 60904 31500.00000 0 17296931.673 -11182252.775 -15037202.426 10 0 60904 32400.00000 0 18897228.144 -11776714.408 -12438291.525 10 0 60904 33300.00000 0 20132479.517 -12379059.182 -9597673.132 10 0 60904 34200.00000 0 20986876.269 -12931215.610 -6570607.976 10 0 60904 35100.00000 0 21458056.444 -13374687.855 -3415941.981 10 0 60904 36000.00000 0 21557014.226 -13653200.754 -194958.401 10 0 60904 36900.00000 0 21307463.482 -13715261.439 3029814.675 10 0 60904 37800.00000 0 20744684.809 -13516529.251 6195817.983 10 0 60904 38700.00000 0 19913906.120 -13021893.921 9241672.123 10 0 60904 39600.00000 0 18868286.114 -12207174.562 12108362.506 10 0 60904 40500.00000 0 17666586.319 -11060368.069 14740375.520 10 0 60904 41400.00000 0 16370629.883 -9582394.550 17086764.501 10 0 60904 42300.00000 0 15042653.860 -7787308.424 19102125.659 10 0 60904 43200.00000 0 13742665.571 -5701966.012 20747466.130 10 0 60904 44100.00000 0 12525913.040 -3365162.862 21990948.526 10 0 60904 45000.00000 0 11440574.425 -826275.781 22808498.690 10 0 60904 45900.00000 0 10525761.981 1856535.226 23184265.956 10 0 60904 46800.00000 0 9809922.951 4618492.038 23110927.768 10 0 60904 47700.00000 0 9309703.385 7390642.424 22589833.179 10 0 60904 48600.00000 0 9029321.782 10102483.514 21630982.456 10 0 60904 49500.00000 0 8960478.564 12684657.771 20252842.733 10 0 60904 50400.00000 0 9082805.336 15071611.226 18482002.436 10 0 60904 51300.00000 0 9364835.593 17204104.978 16352669.988 10 0 60904 52200.00000 0 9765456.896 19031476.475 13906025.133 10 0 60904 53100.00000 0 10235784.333 20513556.933 11189433.984 10 0 60904 54000.00000 0 10721377.199 21622164.968 8255541.715 10 0 60904 54900.00000 0 11164706.049 22342113.803 5161259.318 10 0 60904 55800.00000 0 11507766.230 22671689.239 1966663.405 10 0 60904 56700.00000 0 11694727.224 22622577.763 -1266169.974 10 0 60904 57600.00000 0 11674505.119 22219247.089 -4474374.744 10 0 60904 58500.00000 0 11403148.168 21497804.715 -7595523.415 10 0 60904 59400.00000 0 10845932.977 20504382.283 -10568850.210 10 0 60904 60300.00000 0 9979080.793 19293113.861 -13336443.873 10 0 60904 61200.00000 0 8791019.384 17923793.706 -15844385.802 10 0 60904 62100.00000 0 7283135.237 16459312.856 -18043810.245 10 0 60904 63000.00000 0 5469982.453 14962983.358 -19891864.993 10 0 60904 63900.00000 0 3378937.959 13495863.711 -21352553.045 10 0 60904 64800.00000 0 1049316.156 12114198.918 -22397438.417 10 0 60904 65700.00000 0 -1469020.871 10867083.452 -23006202.092 10 0 60904 66600.00000 0 -4117500.026 9794445.795 -23167037.300 10 0 60904 67500.00000 0 -6831044.394 8925439.214 -22876876.627 10 0 60904 68400.00000 0 -9540558.954 8277306.064 -22141446.889 10 0 60904 69300.00000 0 -12175591.153 7854762.591 -20975151.109 10 0 60904 70200.00000 0 -14667055.439 7649929.033 -19400780.396 10 0 60904 71100.00000 0 -16949908.262 7642806.688 -17449061.780 10 0 60904 72000.00000 0 -18965662.217 7802280.390 -15158051.337 10 0 60904 72900.00000 0 -20664634.907 8087602.664 -12572384.873 10 0 60904 73800.00000 0 -22007839.336 8450295.538 -9742401.271 10 0 60904 74700.00000 0 -22968437.799 8836388.389 -6723156.084 10 0 60904 75600.00000 0 -23532699.712 9188896.190 -3573345.103 10 0 60904 76500.00000 0 -23700424.712 9450432.529 -354159.326 10 0 60904 77400.00000 0 -23484814.882 9565846.342 2871905.889 10 0 60904 78300.00000 0 -22911803.096 9484770.515 6042264.009 10 0 60904 79200.00000 0 -22018867.189 9163974.592 9095449.078 10 0 60904 80100.00000 0 -20853381.067 8569422.277 11972302.528 10 0 60904 81000.00000 0 -19470572.949 7677947.120 14617112.295 10 0 60904 81900.00000 0 -17931177.001 6478475.949 16978682.770 10 0 60904 82800.00000 0 -16298876.952 4972748.632 19011315.618 10 0 60904 83700.00000 0 -14637648.482 3175503.760 20675683.562 10 0 60904 84600.00000 0 -13009110.843 1114121.935 21939581.341 10 0 60904 85500.00000 0 -11469997.467 -1172259.297 22778540.493 10 0 60905 0.00000 0 -10069850.055 -3634122.980 23176297.068 10 0 60905 900.00000 0 -8849030.471 -6213388.352 23125104.150 10 0 60905 1800.00000 0 -7837134.029 -8845587.489 22625883.157 10 0 60905 2700.00000 0 -7051866.982 -11462318.912 21688211.698 10 0 60905 3600.00000 0 -6498436.293 -13993874.979 20330147.176 10 0 60905 4500.00000 0 -6169476.132 -16371936.969 18577889.020 10 0 60905 5400.00000 0 -6045514.351 -18532227.170 16465284.872 10 0 60905 6300.00000 0 -6095959.722 -20417008.734 14033188.896 10 0 60905 7200.00000 0 -6280569.016 -21977329.787 11328683.235 10 0 60905 8100.00000 0 -6551332.835 -23174918.323 8404176.359 10 0 60905 9000.00000 0 -6854701.215 -23983648.409 5316394.614 10 0 60905 9900.00000 0 -7134055.391 -24390515.668 2125285.831 10 0 60905 10800.00000 0 -7332321.160 -24396080.294 -1107144.131 10 0 60905 11700.00000 0 -7394612.824 -24014358.078 -4318039.237 10 0 60905 12600.00000 0 -7270794.836 -23272163.171 -7444921.533 10 0 60905 13500.00000 0 -6917851.358 -22207929.636 -10426915.143 10 0 60905 14400.00000 0 -6301961.735 -20870061.032 -13205941.168 10 0 60905 15300.00000 0 -5400192.188 -19314877.560 -15727859.050 10 0 60905 16200.00000 0 -4201730.268 -17604247.489 -17943531.137 10 0 60905 17100.00000 0 -2708608.010 -15803003.111 -19809788.708 10 0 60905 18000.00000 0 -935881.598 -13976250.628 -21290279.905 10 0 60905 18900.00000 0 1088741.560 -12186687.756 -22356182.536 10 0 60905 19800.00000 0 3325813.878 -10492042.307 -22986767.670 10 0 60905 20700.00000 0 5725559.390 -8942739.666 -23169802.991 10 0 60905 21600.00000 0 8229727.804 -7579897.052 -22901788.312 10 0 60905 22500.00000 0 10773813.557 -6433728.363 -22188018.942 10 0 60905 23400.00000 0 13289547.292 -5522425.782 -21042476.146 10 0 60905 24300.00000 0 15707555.715 -4851563.981 -19487547.258 10 0 60905 25200.00000 0 17960078.833 -4414050.483 -17553581.390 10 0 60905 26100.00000 0 19983631.150 -4190622.645 -15278289.892 10 0 60905 27000.00000 0 21721495.886 -4150868.568 -12706003.714 10 0 60905 27900.00000 0 23125948.421 -4254727.128 -9886802.633 10 0 60905 28800.00000 0 24160116.577 -4454402.212 -6875533.835 10 0 60905 29700.00000 0 24799400.787 -4696608.835 -3730739.470 10 0 60905 30600.00000 0 25032395.764 -4925054.990 -513514.549 10 0 60905 31500.00000 0 24861276.333 -5083053.409 2713682.131 10 0 60905 32400.00000 0 24301632.585 -5116152.164 5888240.546 10 0 60905 33300.00000 0 23381762.656 -4974672.588 8948611.777 10 0 60905 34200.00000 0 22141454.004 -4616047.220 11835496.555 10 0 60905 35100.00000 0 20630305.276 -4006859.179 14492987.250 10 0 60905 36000.00000 0 18905659.751 -3124497.149 16869641.720 10 0 60905 36900.00000 0 17030237.120 -1958356.447 18919469.023 10 0 60905 37800.00000 0 15069562.501 -510535.645 20602808.894 10 0 60905 38700.00000 0 13089299.466 1204000.781 21887089.160 10 0 60905 39600.00000 0 11152597.483 3157801.252 22747447.539 10 0 60905 40500.00000 0 9317563.120 5311832.544 23167206.854 10 0 60905 41400.00000 0 7634959.045 7616875.574 23138195.276 10 0 60905 42300.00000 0 6146225.292 10015355.066 22660905.848 10 0 60905 43200.00000 0 4881904.006 12443528.880 21744492.260 10 0 60905 44100.00000 0 3860532.296 14833947.951 20406600.533 10 0 60905 45000.00000 0 3088048.698 17118086.363 18673039.111 10 0 60905 45900.00000 0 2557737.696 19229033.790 16577292.551 10 0 60905 46800.00000 0 2250714.577 21104139.449 14159886.899 10 0 60905 47700.00000 0 2136930.519 22687498.086 11467617.594 10 0 60905 48600.00000 0 2176656.053 23932174.503 8552653.507 10 0 60905 49500.00000 0 2322380.830 24802073.365 5471533.340 10 0 60905 50400.00000 0 2521049.844 25273375.334 2284073.087 10 0 60905 51300.00000 0 2716541.646 25335478.296 -947794.633 10 0 60905 52200.00000 0 2852283.405 24991403.070 -4161226.792 10 0 60905 53100.00000 0 2873891.387 24257645.353 -7293697.783 10 0 60905 54000.00000 0 2731723.885 23163479.180 -10284224.199 10 0 60905 54900.00000 0 2383237.014 21749740.432 -13074561.764 10 0 60905 55800.00000 0 1795041.924 20067141.192 -15610349.907 10 0 60905 56700.00000 0 944574.532 18174185.788 -17842180.665 10 0 60905 57600.00000 0 -178694.670 16134776.375 -19726570.088 10 0 60905 58500.00000 0 -1572563.508 14015609.136 -21226812.433 10 0 60905 59400.00000 0 -3221944.707 11883470.977 -22313700.020 10 0 60905 60300.00000 0 -5099263.888 9802550.637 -22966094.451 10 0 60905 61200.00000 0 -7165393.236 7831877.327 -23171338.068 10 0 60905 62100.00000 0 -9371082.368 6022994.290 -22925497.811 10 0 60905 63000.00000 0 -11658826.876 4417964.446 -22233437.077 10 0 60905 63900.00000 0 -13965096.472 3047791.022 -21108714.607 10 0 60905 64800.00000 0 -16222829.582 1931318.221 -19573312.833 10 0 60905 65700.00000 0 -18364090.014 1074656.604 -17657201.476 10 0 60905 66600.00000 0 -20322774.540 471155.561 -15397745.378 10 0 60905 67500.00000 0 -22037258.153 101922.093 -12838968.606 10 0 60905 68400.00000 0 -23452866.494 -63137.945 -10030689.619 10 0 60905 69300.00000 0 -24524072.223 -63801.930 -7027544.895 10 0 60905 70200.00000 0 -25216323.897 52398.225 -3887920.517 10 0 60905 71100.00000 0 -25507431.455 232432.575 -672813.002 10 0 60905 72000.00000 0 -25388451.115 420260.813 2555357.969 10 0 60905 72900.00000 0 -24864033.676 559445.045 5733961.507 10 0 60905 73800.00000 0 -23952222.692 595776.641 8801368.397 10 0 60905 74700.00000 0 -22683712.069 479805.889 11698141.351 10 0 60905 75600.00000 0 -21100595.071 169167.653 14368179.801 10 0 60905 76500.00000 0 -19254657.779 -369394.916 16759797.601 10 0 60905 77400.00000 0 -17205288.651 -1158393.644 18826713.513 10 0 60905 78300.00000 0 -15017091.448 -2208414.276 20528936.328 10 0 60905 79200.00000 0 -12757300.581 -3517440.751 21833528.651 10 0 60905 80100.00000 0 -10493105.746 -5070713.504 22715235.664 10 0 60905 81000.00000 0 -8288996.005 -6841128.453 23156967.821 10 0 60905 81900.00000 0 -6204232.420 -8790161.149 23150128.904 10 0 60905 82800.00000 0 -4290552.855 -10869279.003 22694783.577 10 0 60905 83700.00000 0 -2590202.980 -13021784.494 21799661.281 10 0 60905 84600.00000 0 -1134374.115 -15185014.480 20481995.983 10 0 60905 85500.00000 0 57887.972 -17292805.877 18767204.119 10 0 60906 0.00000 0 980258.456 -19278126.532 16688406.034 10 0 60906 900.00000 0 1639169.752 -21075764.011 14285797.619 10 0 60906 1800.00000 0 2053306.097 -22624958.427 11605885.820 10 0 60906 2700.00000 0 2252579.104 -23871873.201 8700597.684 10 0 60906 3600.00000 0 2276625.808 -24771797.605 5626281.806 10 0 60906 4500.00000 0 2172892.817 -25290989.229 2442619.695 10 0 60906 5400.00000 0 1994387.260 -25408077.881 -788532.061 10 0 60906 6300.00000 0 1797189.817 -25114970.645 -4004346.339 10 0 60906 7200.00000 0 1637835.622 -24417218.651 -7142252.834 10 0 60906 8100.00000 0 1570674.846 -23333828.812 -10141163.608 10 0 60906 9000.00000 0 1645326.025 -21896527.276 -12942671.986 10 0 60906 9900.00000 0 1904331.483 -20148504.776 -15492200.299 10 0 60906 10800.00000 0 2381115.798 -18142696.127 -17740073.033 10 0 60906 11700.00000 0 3098335.372 -15939666.032 -19642493.526 10 0 60906 12600.00000 0 4066690.515 -13605190.120 -21162404.338 10 0 60906 13500.00000 0 5284251.676 -11207633.023 -22270214.073 10 0 60906 14400.00000 0 6736329.490 -8815233.743 -22944376.192 10 0 60906 15300.00000 0 8395895.112 -6493412.340 -23171808.525 10 0 60906 16200.00000 0 10224533.888 -4302210.759 -22948145.509 10 0 60906 17100.00000 0 12173892.764 -2293974.639 -22277818.554 10 0 60906 18000.00000 0 14187560.917 -511372.579 -21173963.386 10 0 60906 18900.00000 0 16203304.785 1014165.267 -19658156.665 10 0 60906 19800.00000 0 18155563.748 2263525.239 -17759987.473 10 0 60906 20700.00000 0 19978101.724 3230461.351 -15516472.519 10 0 60906 21600.00000 0 21606703.404 3921598.465 -12971326.956 10 0 60906 22500.00000 0 22981802.131 4355889.422 -10174105.498 10 0 60906 23400.00000 0 24050929.214 4563551.118 -7179231.098 10 0 60906 24300.00000 0 24770882.280 4584526.430 -4044930.615 10 0 60906 25200.00000 0 25109522.064 4466538.709 -832098.654 10 0 60906 26100.00000 0 25047122.877 4262822.588 2396887.793 10 0 60906 27000.00000 0 24577220.827 4029628.177 5579380.563 10 0 60906 27900.00000 0 23706925.046 3823604.965 8653673.638 10 0 60906 28800.00000 0 22456679.707 3699176.415 11560194.996 10 0 60906 29700.00000 0 20859487.544 3706016.264 14242654.118 10 0 60906 30600.00000 0 18959627.908 3886732.865 16649123.487 10 0 60906 31500.00000 0 16810923.213 4274858.896 18733033.821 10 0 60906 32400.00000 0 14474626.070 4893230.712 20454064.815 10 0 60906 33300.00000 0 12017014.693 5752825.268 21778915.280 10 0 60906 34200.00000 0 9506795.871 6852103.427 22681938.897 10 0 60906 35100.00000 0 7012422.340 8176887.512 23145634.350 10 0 60906 36000.00000 0 4599434.578 9700778.995 23160981.194 10 0 60906 36900.00000 0 2327935.896 11386099.983 22727615.436 10 0 60906 37800.00000 0 250304.125 13185320.665 21853841.526 10 0 60906 38700.00000 0 -1590766.492 15042914.904 20556480.182 10 0 60906 39600.00000 0 -3163812.980 16897568.299 18860554.224 10 0 60906 40500.00000 0 -4449677.336 18684648.350 16798817.376 10 0 60906 41400.00000 0 -5442062.115 20338835.053 14411133.825 10 0 60906 42300.00000 0 -6147544.884 21796803.070 11743719.113 10 0 60906 43200.00000 0 -6585050.993 22999843.849 8848255.704 10 0 60906 44100.00000 0 -6784806.642 23896317.924 5780899.192 10 0 60906 45000.00000 0 -6786816.098 24443833.986 2601193.615 10 0 60906 45900.00000 0 -6638927.175 24611062.258 -629083.501 10 0 60906 46800.00000 0 -6394566.756 24379104.618 -3847123.951 10 0 60906 47700.00000 0 -6110242.496 23742362.246 -6990315.672 10 0 60906 48600.00000 0 -5842917.160 22708862.712 -9997468.983 10 0 60906 49500.00000 0 -5647367.786 21300031.234 -12810017.391 10 0 60906 50400.00000 0 -5573642.825 19549914.476 -15373168.434 10 0 60906 51300.00000 0 -5664726.365 17503888.628 -17636981.066 10 0 60906 52200.00000 0 -5954509.860 15216905.439 -19557347.613 10 0 60906 53100.00000 0 -6466158.592 12751349.620 -21096860.344 10 0 60906 54000.00000 0 -7210943.283 10174597.490 -22225545.250 10 0 60906 54900.00000 0 -8187587.308 7556379.257 -22921448.459 10 0 60906 55800.00000 0 -9382157.938 4966055.603 -23171063.800 10 0 60906 56700.00000 0 -10768506.829 2469922.507 -22969593.385 10 0 60906 57600.00000 0 -12309241.625 128656.852 -22321036.451 10 0 60906 58500.00000 0 -13957187.921 -2004990.856 -21238105.147 10 0 60906 59400.00000 0 -15657280.176 -3888161.014 -19741969.398 10 0 60906 60300.00000 0 -17348801.925 -5489425.752 -17861836.297 10 0 60906 61200.00000 0 -18967881.018 -6789843.105 -15634372.722 10 0 60906 62100.00000 0 -20450134.780 -7783482.211 -13102982.925 10 0 60906 63000.00000 0 -21733353.837 -8477399.628 -10316955.654 10 0 60906 63900.00000 0 -22760111.697 -8891069.900 -7330497.941 10 0 60906 64800.00000 0 -23480190.468 -9055296.585 -4201674.891 10 0 60906 65700.00000 0 -23852720.964 -9010651.649 -991276.574 10 0 60906 66600.00000 0 -23847947.574 -8805510.900 2238365.427 10 0 60906 67500.00000 0 -23448544.263 -8493769.868 5424588.462 10 0 60906 68400.00000 0 -22650426.983 -8132337.714 8505612.548 10 0 60906 69300.00000 0 -21463029.037 -7778515.694 11421733.770 10 0 60906 70200.00000 0 -19909028.392 -7487371.147 14116474.453 10 0 60906 71100.00000 0 -18023538.775 -7309217.753 16537668.361 10 0 60906 72000.00000 0 -15852798.532 -7287307.943 18638460.596 10 0 60906 72900.00000 0 -13452411.874 -7455834.186 20378203.882 10 0 60906 73800.00000 0 -10885215.285 -7838322.695 21723234.997 10 0 60906 74700.00000 0 -8218857.077 -8446486.712 22647517.455 10 0 60906 75600.00000 0 -5523189.498 -9279587.359 23133139.084 10 0 60906 76500.00000 0 -2867580.208 -10324329.148 23170655.712 10 0 60906 77400.00000 0 -318253.121 -11555295.174 22759274.792 10 0 60906 78300.00000 0 2064232.765 -12935904.898 21906875.550 10 0 60906 79200.00000 0 4227263.464 -14419855.871 20629864.901 10 0 60906 80100.00000 0 6128115.717 -15952990.746 18952871.190 10 0 60906 81000.00000 0 7735488.488 -17475513.169 16908280.585 10 0 60906 81900.00000 0 9030557.236 -18924461.390 14535623.737 10 0 60906 82800.00000 0 10007507.361 -20236337.243 11880823.196 10 0 60906 83700.00000 0 10673524.655 -21349781.127 8995314.768 10 0 60906 84600.00000 0 11048243.078 -22208181.011 5935058.667 10 0 60906 85500.00000 0 11162672.883 -22762105.595 2759458.822 99